User: anonymous   Login
Location: *
(37.5724°S, 58.0067°E)
Time: 05:09:16
(UTC+00:00)
Language:

Hubble Space Telescope - Orbit

View from above orbital plane
View from above orbital plane
View from above satellite
View from above satellite

Ground track
Ground track

The orbit data is extracted from the following two-line orbital elements,

1 20580U 90037B   20337.58035152  .00001022  00000-0  51129-4 0  9995
2 20580  28.4703 287.5917 0002918 102.6290  60.2043 15.09497753481356
Epoch (UTC): 02 December 2020 13:55:42
Eccentricity: 0.0002918
inclination: 28.4703°
perigee height: 536 km
apogee height: 540 km
right ascension of ascending node: 287.5917°
argument of perigee: 102.6290°
revolutions per day: 15.09497753
mean anomaly at epoch: 60.2043°
orbit number at epoch: 48135

The dashed part of the orbit path shows where the satellite is in the earth's shadow,  

DLR